STARLINK U

Last updated on Jan. 16, 2020, 12:02 a.m. UTC

1 44932U 20001U   20015.58334491  .00322202  00000-0  15970-2 0  9995
2 44932  53.0008 354.8680 0003961 249.3976 124.2267 15.80573852  2586

Satellite is not in orbit.